Weather History for Jackson, MS

Change the Weather History Date:

Tuesday, April 1, 2014

  Actual Average Record
Temperature  
Mean Temperature 68 °F 61 °F  
Max Temperature 80 °F 73 °F 87 °F (1927)
Min Temperature 56 °F 49 °F 31 °F (1994)
Degree Days  
Heating Degree Days 0 6  
Month to date heating degree days 0 6  
Since 1 July heating degree days 2609 2276  
Cooling Degree Days 3 2  
Month to date cooling degree days 3 2  
Year to date cooling degree days 13 39  
Growing Degree Days 18 (Base 50)    
Moisture  
Dew Point 56 °F    
Average Humidity 68    
Maximum Humidity 93    
Minimum Humidity 42    
Precipitation  
Precipitation T in 0.19 in 1.84 in (1938)
Month to date precipitation T 0.19  
Year to date precipitation 12.70 14.96  
Sea Level Pressure  
Sea Level Pressure 30.06 in    
Wind  
Wind Speed 8 mph (South)    
Max Wind Speed 18 mph    
Max Gust Speed 24 mph    
Visibility 10 miles    
Events      
T = Trace of Precipitation, MM = Missing Value Source: NWS Daily Summary

Daily Weather History Graph

Daily Weather History Graph

Search for Another Location

Airport:

Trip Planner

Search our weather history database for the weather conditions in past years. The results will help you decide how hot, cold, wet, or windy it might be!

Date:

Astronomy

Apr. 01, 2014 Rise Set
Actual Time 6:48 AM CDT 7:20 PM CDT
Civil Twilight 6:23 AM CDT 7:44 PM CDT
Nautical Twilight 5:54 AM CDT 8:13 PM CDT
Astronomical Twilight 5:25 AM CDT 8:43 PM CDT
Moon 7:57 AM CDT (4/1) 9:34 PM CDT (4/1)
Length of Visible Light 13h 21m
Length of Day
12h 31m
Waxing Crescent, 5% of the Moon is Illuminated
Apr 1
Waxing Crescent
Apr 7
First Quarter
Apr 15
Full
Apr 22
Last Quarter
Apr 29
New

Hourly Weather History & Observations

Time (CDT) Temp. Heat Index Dew Point Humidity Pressure Visibility Wind Dir Wind Speed Gust Speed Precip Events Conditions
12:54 AM 60.1 °F - 50.0 °F 69% 30.06 in 10.0 mi South 11.5 mph - N/A   Mostly Cloudy
1:54 AM 59.0 °F - 51.1 °F 75% 30.08 in 10.0 mi South 9.2 mph - N/A   Mostly Cloudy
2:54 AM 59.0 °F - 52.0 °F 78% 30.04 in 10.0 mi SSE 13.8 mph 18.4 mph 0.00 in   Scattered Clouds
3:54 AM 57.9 °F - 53.1 °F 84% 30.06 in 10.0 mi SSW 5.8 mph - N/A   Mostly Cloudy
4:54 AM 57.9 °F - 53.1 °F 84% 30.08 in 10.0 mi Calm Calm - N/A   Overcast
5:54 AM 55.9 °F - 53.1 °F 90% 30.09 in 10.0 mi SE 4.6 mph - N/A   Overcast
6:54 AM 57.9 °F - 54.0 °F 87% 30.10 in 10.0 mi East 3.5 mph - N/A   Mostly Cloudy
7:54 AM 57.9 °F - 55.0 °F 90% 30.12 in 10.0 mi ESE 3.5 mph - N/A   Scattered Clouds
8:54 AM 62.1 °F - 55.9 °F 80% 30.12 in 10.0 mi SSE 5.8 mph - N/A   Overcast
9:54 AM 66.9 °F - 57.9 °F 73% 30.13 in 10.0 mi SSE 6.9 mph - N/A   Mostly Cloudy
10:54 AM 69.1 °F - 59.0 °F 70% 30.13 in 10.0 mi SSW 8.1 mph - N/A   Overcast
11:54 AM 73.9 °F - 60.1 °F 62% 30.11 in 10.0 mi South 8.1 mph - N/A   Mostly Cloudy
12:54 PM 75.9 °F - 59.0 °F 56% 30.09 in 10.0 mi SSW 11.5 mph - N/A   Mostly Cloudy
1:54 PM 78.1 °F - 57.9 °F 50% 30.07 in 10.0 mi SSW 11.5 mph 17.3 mph N/A   Mostly Cloudy
2:54 PM 77.0 °F - 57.0 °F 50% 30.05 in 10.0 mi South 12.7 mph 19.6 mph N/A   Mostly Cloudy
3:54 PM 80.1 °F 80.2 °F 55.9 °F 43% 30.02 in 10.0 mi South 8.1 mph 17.3 mph N/A   Scattered Clouds
4:54 PM 80.1 °F 80.6 °F 57.9 °F 47% 30.01 in 10.0 mi SSE 11.5 mph - N/A   Scattered Clouds
5:54 PM 77.0 °F - 57.0 °F 50% 30.02 in 10.0 mi South 11.5 mph - N/A   Partly Cloudy
6:54 PM 75.0 °F - 57.0 °F 53% 30.01 in 10.0 mi South 9.2 mph - N/A   Partly Cloudy
7:54 PM 66.9 °F - 57.0 °F 70% 30.01 in 10.0 mi SE 5.8 mph - N/A   Clear
8:54 PM 66.0 °F - 57.0 °F 73% 30.02 in 10.0 mi SSE 8.1 mph - N/A   Clear
9:54 PM 66.0 °F - 57.9 °F 75% 30.03 in 10.0 mi SSE 6.9 mph - N/A   Clear
10:54 PM 68.0 °F - 59.0 °F 73% 30.03 in 10.0 mi South 9.2 mph - N/A   Clear
11:54 PM 66.0 °F - 60.1 °F 81% 30.02 in 10.0 mi South 12.7 mph - N/A   Clear